When you browse on this site, cookies collect data to enhance your experience and personalize the content and advertising you see.
Visit our Privacy Policy to learn more. By continuing to use the site, you agree to this use of cookies and data.

Météo par heure à Ipswich

Ce jour, 13 Juillet, Lundi

Heure Température Précipitation Vent Pression Humidité
00:00 +12°C° 0 mm 3 m/s 768 mmHg 78%
01:00 +12°C° 0 mm 3 m/s 768 mmHg 78%
02:00 +12°C° 0 mm 3 m/s 768 mmHg 77%
03:00 +12°C° 0 mm 3 m/s 767 mmHg 77%
04:00 +12°C° 0 mm 3 m/s 767 mmHg 78%
05:00 +13°C° 0 mm 3 m/s 767 mmHg 78%
06:00 +14°C° 0 mm 3 m/s 767 mmHg 79%
07:00 +16°C° 0 mm 3 m/s 767 mmHg 74%
08:00 +18°C° 0 mm 3 m/s 767 mmHg 69%
09:00 +19°C° 0 mm 3 m/s 766 mmHg 64%
10:00 +20°C° 0 mm 4 m/s 766 mmHg 59%
11:00 +21°C° 0 mm 4 m/s 766 mmHg 55%
12:00 +22°C° 0 mm 4 m/s 766 mmHg 50%
13:00 +22°C° 0 mm 4 m/s 765 mmHg 53%
14:00 +21°C° 0 mm 4 m/s 765 mmHg 56%
15:00 +21°C° 0 mm 4 m/s 764 mmHg 59%
16:00 +20°C° 0 mm 4 m/s 764 mmHg 64%
17:00 +20°C° 0 mm 4 m/s 764 mmHg 69%
18:00 +19°C° 0 mm 4 m/s 763 mmHg 74%
19:00 +18°C° 0 mm 4 m/s 763 mmHg 78%
20:00 +17°C° 0 mm 4 m/s 763 mmHg 82%
21:00 +15°C° 0 mm 5 m/s 763 mmHg 87%
22:00 +15°C° 0.1 mm 4 m/s 762 mmHg 89%
23:00 +15°C° 0.1 mm 4 m/s 762 mmHg 90%

Demain, 14 Juillet, Mardi

Heure Température Précipitation Vent Pression Humidité
00:00 +15°C° 0.1 mm 4 m/s 762 mmHg 92%
01:00 +15°C° 0.1 mm 4 m/s 761 mmHg 93%
02:00 +15°C° 0.1 mm 4 m/s 761 mmHg 94%
03:00 +14°C° 0.1 mm 3 m/s 760 mmHg 95%
04:00 +15°C° 0 mm 4 m/s 760 mmHg 93%
05:00 +15°C° 0 mm 4 m/s 760 mmHg 90%
06:00 +15°C° 0 mm 4 m/s 761 mmHg 88%
07:00 +17°C° 0 mm 4 m/s 761 mmHg 83%
08:00 +17°C° 0 mm 4 m/s 760 mmHg 78%
09:00 +18°C° 0 mm 4 m/s 760 mmHg 73%
10:00 +19°C° 0 mm 4 m/s 761 mmHg 68%
11:00 +19°C° 0 mm 4 m/s 761 mmHg 63%
12:00 +20°C° 0 mm 5 m/s 761 mmHg 58%
13:00 +19°C° 0 mm 4 m/s 760 mmHg 58%
14:00 +19°C° 0 mm 4 m/s 760 mmHg 59%
15:00 +19°C° 0 mm 4 m/s 760 mmHg 59%
16:00 +19°C° 0.1 mm 4 m/s 760 mmHg 64%
17:00 +18°C° 0.1 mm 3 m/s 760 mmHg 68%
18:00 +17°C° 0.1 mm 3 m/s 760 mmHg 73%
19:00 +17°C° 0.1 mm 3 m/s 760 mmHg 76%
20:00 +16°C° 0.1 mm 2 m/s 760 mmHg 78%
21:00 +15°C° 0.1 mm 2 m/s 760 mmHg 81%
22:00 +14°C° 0 mm 3 m/s 760 mmHg 84%
23:00 +13°C° 0 mm 3 m/s 761 mmHg 87%

Après-demain, 15 Juillet, Mercredi

Heure Température Précipitation Vent Pression Humidité
00:00 +12°C° 0 mm 4 m/s 761 mmHg 89%
01:00 +12°C° 0 mm 4 m/s 760 mmHg 91%
02:00 +11°C° 0 mm 4 m/s 760 mmHg 93%
03:00 +10°C° 0 mm 4 m/s 760 mmHg 94%
04:00 +11°C° 0 mm 3 m/s 760 mmHg 92%
05:00 +12°C° 0 mm 3 m/s 760 mmHg 90%
06:00 +13°C° 0 mm 3 m/s 760 mmHg 88%
07:00 +14°C° 0 mm 3 m/s 760 mmHg 82%
08:00 +17°C° 0 mm 3 m/s 761 mmHg 77%
09:00 +18°C° 0 mm 3 m/s 761 mmHg 72%
10:00 +18°C° 0.2 mm 3 m/s 761 mmHg 70%
11:00 +19°C° 0.2 mm 4 m/s 761 mmHg 69%
12:00 +19°C° 0.2 mm 4 m/s 761 mmHg 67%
13:00 +19°C° 0.3 mm 4 m/s 761 mmHg 69%
14:00 +19°C° 0.3 mm 4 m/s 761 mmHg 71%
15:00 +19°C° 0.3 mm 3 m/s 761 mmHg 73%
16:00 +18°C° 0.3 mm 4 m/s 761 mmHg 77%
17:00 +17°C° 0.3 mm 4 m/s 761 mmHg 81%
18:00 +17°C° 0.3 mm 4 m/s 761 mmHg 86%
19:00 +15°C° 0 mm 4 m/s 762 mmHg 88%
20:00 +14°C° 0 mm 4 m/s 762 mmHg 90%
21:00 +14°C° 0 mm 3 m/s 762 mmHg 92%
22:00 +14°C° 0 mm 3 m/s 762 mmHg 92%
23:00 +14°C° 0 mm 3 m/s 762 mmHg 92%

16 Juillet, Jeudi

Heure Température Précipitation Vent Pression Humidité
00:00 +14°C° 0 mm 3 m/s 762 mmHg 92%
01:00 +14°C° 0.1 mm 4 m/s 762 mmHg 92%
02:00 +14°C° 0.1 mm 4 m/s 762 mmHg 93%
03:00 +13°C° 0.1 mm 4 m/s 762 mmHg 93%
04:00 +14°C° 0 mm 4 m/s 762 mmHg 93%
05:00 +14°C° 0 mm 4 m/s 762 mmHg 93%
06:00 +14°C° 0 mm 4 m/s 762 mmHg 93%
07:00 +15°C° 0 mm 4 m/s 763 mmHg 89%
08:00 +17°C° 0 mm 4 m/s 763 mmHg 86%
09:00 +18°C° 0 mm 4 m/s 763 mmHg 82%
10:00 +18°C° 0 mm 3 m/s 763 mmHg 80%
11:00 +19°C° 0 mm 3 m/s 764 mmHg 78%
12:00 +20°C° 0 mm 3 m/s 764 mmHg 76%
13:00 +20°C° 0.1 mm 3 m/s 764 mmHg 75%
14:00 +20°C° 0.1 mm 3 m/s 764 mmHg 73%
15:00 +20°C° 0.1 mm 3 m/s 764 mmHg 72%
16:00 +20°C° 0 mm 2 m/s 764 mmHg 73%
17:00 +20°C° 0 mm 2 m/s 764 mmHg 75%
18:00 +20°C° 0 mm 2 m/s 764 mmHg 77%
19:00 +19°C° 0 mm 2 m/s 764 mmHg 81%
20:00 +18°C° 0 mm 2 m/s 764 mmHg 85%
21:00 +18°C° 0 mm 1 m/s 765 mmHg 90%
22:00 +16°C° 0 mm 1 m/s 765 mmHg 90%
23:00 +16°C° 0 mm 1 m/s 765 mmHg 91%

17 Juillet, Vendredi

Heure Température Précipitation Vent Pression Humidité
00:00 +15°C° 0 mm 1 m/s 765 mmHg 92%
01:00 +15°C° 0 mm 1 m/s 765 mmHg 92%
02:00 +15°C° 0 mm 1 m/s 764 mmHg 92%
03:00 +15°C° 0 mm 1 m/s 764 mmHg 92%
04:00 +15°C° 0 mm 1 m/s 764 mmHg 91%
05:00 +16°C° 0 mm 1 m/s 765 mmHg 90%
06:00 +18°C° 0 mm 1 m/s 765 mmHg 88%
07:00 +19°C° 0 mm 1 m/s 765 mmHg 82%
08:00 +21°C° 0 mm 1 m/s 765 mmHg 76%
09:00 +23°C° 0 mm 1 m/s 765 mmHg 70%
10:00 +23°C° 0.1 mm 1 m/s 765 mmHg 67%
11:00 +24°C° 0.1 mm 1 m/s 765 mmHg 64%
12:00 +25°C° 0.1 mm 2 m/s 765 mmHg 61%
13:00 +25°C° 0.1 mm 2 m/s 765 mmHg 62%
14:00 +25°C° 0.1 mm 2 m/s 765 mmHg 63%
15:00 +25°C° 0.1 mm 2 m/s 765 mmHg 64%
16:00 +25°C° 0.1 mm 3 m/s 764 mmHg 67%
17:00 +24°C° 0.1 mm 3 m/s 764 mmHg 71%
18:00 +22°C° 0.1 mm 3 m/s 764 mmHg 74%
19:00 +21°C° 0 mm 3 m/s 764 mmHg 78%
20:00 +19°C° 0 mm 3 m/s 765 mmHg 83%
21:00 +17°C° 0 mm 3 m/s 765 mmHg 88%
22:00 +17°C° 0 mm 3 m/s 765 mmHg 89%
23:00 +17°C° 0 mm 3 m/s 764 mmHg 90%

18 Juillet, Samedi

Heure Température Précipitation Vent Pression Humidité
00:00 +17°C° 0 mm 3 m/s 764 mmHg 92%
01:00 +17°C° 0 mm 3 m/s 764 mmHg 92%
02:00 +17°C° 0 mm 3 m/s 764 mmHg 92%
03:00 +17°C° 0 mm 2 m/s 764 mmHg 92%
04:00 +17°C° 0 mm 2 m/s 764 mmHg 89%
05:00 +18°C° 0 mm 2 m/s 763 mmHg 86%
06:00 +18°C° 0 mm 2 m/s 763 mmHg 83%
07:00 +20°C° 0 mm 3 m/s 763 mmHg 78%
08:00 +21°C° 0 mm 4 m/s 763 mmHg 72%
09:00 +23°C° 0 mm 4 m/s 763 mmHg 66%
10:00 +23°C° 0 mm 4 m/s 763 mmHg 63%
11:00 +25°C° 0 mm 5 m/s 763 mmHg 59%
12:00 +26°C° 0 mm 5 m/s 762 mmHg 55%
13:00 +26°C° 0 mm 5 m/s 762 mmHg 55%
14:00 +26°C° 0 mm 4 m/s 762 mmHg 55%
15:00 +26°C° 0 mm 4 m/s 762 mmHg 55%
16:00 +25°C° 0 mm 4 m/s 761 mmHg 59%
17:00 +23°C° 0 mm 4 m/s 761 mmHg 63%
18:00 +22°C° 0 mm 4 m/s 761 mmHg 68%
19:00 +21°C° 0 mm 4 m/s 762 mmHg 74%
20:00 +19°C° 0 mm 3 m/s 762 mmHg 81%
21:00 +18°C° 0 mm 3 m/s 762 mmHg 88%
22:00 +17°C° 0 mm 3 m/s 762 mmHg 90%
23:00 +17°C° 0 mm 3 m/s 762 mmHg 92%
Voir plus